Regional Weather Roundup
Issued by NWS

Home | Current Version | Previous Version | Text Only | Print | Product List | Glossary On
Versions: 1 2 3 4 5 6 7 8 9 10 11 12 13 14 15 16 17 18 19 20 21 22 23 24 25 26 27 28 29 30 31 32 33 34 35 36 37 38 39 40 41 42 43 44 45 46 47 48 49 50
000
ASUS44 KFWD 282215
RWRTX
NORTH TEXAS HOURLY WEATHER ROUNDUP
NATIONAL WEATHER SERVICE FORT WORTH TX
500 PM CDT SAT MAY 28 2016

NOTE: "FAIR" INDICATES FEW OR NO CLOUDS BELOW 12,000 FEET WITH NO
SIGNIFICANT WEATHER AND/OR OBSTRUCTIONS TO VISIBILITY.

TXZ118-119-282300-
DALLAS/FORT WORTH METROPLEX

CITY           SKY/WX    TMP DP  RH WIND       PRES   REMARKS
DFW AIRPORT    MOSUNNY   87  73  62 SE12      29.91F HX  94
DALLAS LOVE    MOSUNNY   86  73  65 SE12      29.92F HX  93
FTW MEACHAM    SUNNY     90  71  53 E9        29.90F HX  96
DAL-EXECUTIVE  MOSUNNY   86  74  67 SE12      29.92S HX  94
FTW-ALLIANCE   MOSUNNY   88  71  57 SE7       29.91F HX  94
FTW-NAS-JRB    MOSUNNY   89  72  56 SE8       29.91F HX  96
FTW-SPINKS     MOSUNNY   88  72  58 SE10      29.93F HX  94
ARLINGTON      MOSUNNY   90  74  59 E12       29.91F HX  99
GRAND PRAIRIE  SUNNY     86  72  62 E9        29.92F HX  92
ADDISON        MOSUNNY   86  73  66 S10       29.94F HX  93
MESQUITE       PTSUNNY   82  73  74 E8        29.94F
LANCASTER      MOSUNNY   84  73  69 SE7       29.94F HX  90
$$

TXZ091>094-102>105-117-120-121-131>134-282300-
NORTH CENTRAL TEXAS

CITY           SKY/WX    TMP DP  RH WIND       PRES   REMARKS
SHRMAN/DENISON SUNNY     82  65  56 CALM      29.95S
GAINESVILLE    SUNNY     83  71  66 SE6       29.95S
BOWIE          SUNNY     87  69  54 E3        29.92S HX  91
BRIDGEPORT     MOSUNNY   88  71  57 SE3       29.93S HX  94
DECATUR        SUNNY     86  67  53 SE6       29.93S
DENTON         SUNNY     85  71  63 SE8       29.91F HX  90
MCKINNEY       SUNNY     82  71  69 SE13      29.94S
GREENVILLE     MOSUNNY   81  70  69 S6        29.96F
ROCKWALL       PTSUNNY   84  73  70 S9G18     29.94S HX  90
TERRELL        PTSUNNY   82  72  71 SE9       29.95S
WAXAHACHIE     MOSUNNY   86  74  66 SE9       29.93F HX  94
CLEBURNE       SUNNY     88  75  66 S12       29.94S HX  97
GRANBURY       SUNNY     90  72  54 SE10      29.91F HX  97
$$

TXZ083>090-098>101-113>116-127>130-139>142-154-155-282300-
WESTERN NORTH TEXAS

CITY           SKY/WX    TMP DP  RH WIND       PRES   REMARKS
WICHITA FALLS  SUNNY     88  64  44 CALM      29.91F
WF-KICKAPOO    SUNNY     88  64  44 CALM      29.92F
VERNON         SUNNY     87  45  22 NE8       29.94F
ABILENE        MOSUNNY   90  61  37 S10       29.93F HX  90
BRECKENRIDGE   SUNNY     92  61  36 S6        29.91S HAZE    HX  92
GRAHAM         SUNNY     92  65  40 SW5       29.89S HX  94
MINERAL WELLS  SUNNY     88  70  55 SE9       29.90F HX  93
STEPHENVILLE   MOSUNNY   89  70  53 SE7       29.96S HX  94
COMANCHE       SUNNY     90  69  50 SE5       29.93S HX  94
BROWNWOOD      SUNNY     90  64  43 SE9       29.92F HX  91
COLEMAN        SUNNY     92  61  36 S9        29.93F HX  91
$$

TXZ143>147-156>162-174-175-282300-
CENTRAL TEXAS

CITY           SKY/WX    TMP DP  RH WIND       PRES   REMARKS
WACO           SUNNY     90  72  55 S10       29.91F HX  97
WACO-MCGREGOR  MOSUNNY  N/A N/A N/A SE13        N/A
HILLSBORO      PTSUNNY   86  73  66 SE10      29.93S HX  93
CORSICANA      MOSUNNY   88  72  58 S10       29.95  HX  94
MEXIA          MOSUNNY   85  73  67 SE8       29.93F HX  92
HEARNE         SUNNY     89  74  62 SE8       29.93F HX  98
CAMERON        MOSUNNY   90  74  59 S8        29.92S HX  98
TEMPLE         MOSUNNY   88  74  63 S13       29.92F HX  96
KILLEEN        MOSUNNY   88  72  58 SE15      29.91F HX  95
KILLEEN-SKYLRK MOSUNNY   90  73  57 S15       29.92F HX  98
FORT HOOD      MOSUNNY   89  72  57 SE12      29.90F HX  95
GATESVILLE     MOSUNNY   90  73  58 SE9       29.94S HX  98
HAMILTON       MOSUNNY   90  70  51 S7        29.94S HX  96
LAMPASAS       MOSUNNY   91  74  58 S7        29.92F HX 100
$$

TXZ095>097-106>112-122>126-135>138-148>153-164>167-282300-
EAST TEXAS

CITY           SKY/WX    TMP DP  RH WIND       PRES   REMARKS
PARIS          MOSUNNY   82  66  57 SE10      29.97S
SULPHUR SPRNGS PTSUNNY   82  68  61 S12       29.98F
MOUNT PLEASANT PTSUNNY   80  68  66 S8        29.99F
GILMER         PTSUNNY   81  72  74 S5        29.98F
MINEOLA        PTSUNNY   81  72  74 SE6       29.98F
TYLER          MOSUNNY   85  71  63 S5        29.96F HX  90
LONGVIEW       PTSUNNY   84  71  65 VRB3      29.96F
MARSHALL       SUNNY     85  70  60 S3        29.99F
ATHENS         MOSUNNY   82  73  74 CALM      29.94F
PALESTINE      MOSUNNY   85  73  66 SE5       29.96F HX  92
JACKSONVILLE   MOSUNNY   85  72  64 SE5       30.00S HX  91
HENDERSON      MOSUNNY   84  69  59 CALM      29.98F
CENTER         FAIR      89  71  56 E3        29.97S HX  95
NACOGDOCHES    SUNNY     88  72  58 SW5       29.96S HX  94
LUFKIN         SUNNY     87  72  60 SE8       29.96F HX  93
$$

SUPPLEMENTAL OBSERVATIONS (CENTRAL)

CITY           SKY/WX    TMP DP  RH WIND       PRES   REMARKS
LAKE TEXOMA      N/A     84  68  58 SE2         N/A
PAT MAYSE LAKE   N/A     81  72  74 E7          N/A
GREENVILLE       N/A     82  70  65 S8          N/A
LAKE LIMESTONE   N/A     90  75  62 SE5         N/A  HX 100
TEMPLE           N/A     90  72  55 S14         N/A  HX  96
$$

SUPPLEMENTAL OBSERVATIONS (WEST)

CITY           SKY/WX    TMP DP  RH WIND       PRES   REMARKS
MILLERS CREEK    N/A     93  55  27 E6          N/A  HX  91
POSSUM KINGDOM   N/A     91  66  43 S8          N/A  HX  94
GRANBURY         N/A     90  70  51 SE12        N/A  HX  95
COMANCHE         N/A     90  66  45 SE10        N/A  HX  92
HAMBY            N/A     93  55  27 S7G15       N/A  HX  91
IVIE RESERVOIR   N/A    N/A N/A N/A SE8G18      N/A
COLORADO BEND    N/A     90  64  43 S12         N/A  HX  91
$$

SUPPLEMENTAL OBSERVATIONS (EAST)

CITY           SKY/WX    TMP DP  RH WIND       PRES   REMARKS
TEXARKANA        N/A     82  68  61 S2          N/A
GILMER           N/A     84  70  61 SW3         N/A
HENDERSON        N/A     86  70  58 S5          N/A  HX  90
LUFKIN           N/A     90  72  55 MISG        N/A  HX  96
N SABINE NF      N/A     91  68  46 MISG        N/A  HX  95
S SABINE NF      N/A     88  72  58 NE5         N/A  HX  94
$$

SUPPLEMENTAL OBSERVATIONS ARE A COLLECTION OF AUTOMATED INSTRUMENTS
THAT ARE MAINTAINED BY A VARIETY OF FEDERAL AND STATE AGENCIES.
CERTAIN ELEMENTS...SUCH AS HUMIDITY VALUES AND SUSTAINED WIND
SPEEDS...MAY BE APPROXIMATED.





USA.gov is the U.S. government's official web portal to all federal, state and local government web resources and services.